User: anonymous   Login
Location: Oshawa
(43.9000°N, 78.8670°W)
Time: 15:01:14
(UTC-04:00)
Language:

Iridium 46 - Orbit

View from above orbital plane
View from above orbital plane
View from above satellite
View from above satellite

Ground track
Ground track

The orbit data is extracted from the following two-line orbital elements,

1 24905U 97043C   16270.35889642  .00000212  00000-0  68505-4 0  9997
2 24905  86.4015   6.2676 0002252  98.6785 261.4666 14.34217057    13
Epoch (UTC): 26 September 2016 08:36:48
Eccentricity: 0.0002252
inclination: 86.4015°
perigee height: 776 km
apogee height: 779 km
right ascension of ascending node: 6.2676°
argument of perigee: 98.6785°
revolutions per day: 14.34217057
mean anomaly at epoch: 261.4666°
orbit number at epoch: 1

The dashed part of the orbit path shows where the satellite is in the earth's shadow,  

DLR